Time,TemperatureF,DewpointF,PressureIn,WindDirection,WindDirectionDegrees,WindSpeedMPH,WindSpeedGustMPH,Humidity,HourlyPrecipIn,Conditions,Clouds,dailyrainin,SoftwareType,DateUTC
2013-01-19 00:02:00,34.0,24.0,30.26,NNW,340,0.0,0.0,67,0.00,,,0.00,,2013-01-19 08:02:00,
2013-01-19 00:11:00,34.0,24.0,30.26,NNW,340,0.0,0.0,67,0.00,,,0.00,,2013-01-19 08:11:00,
2013-01-19 00:22:00,34.0,25.0,30.26,North,360,0.0,0.0,68,0.00,,,0.00,,2013-01-19 08:22:00,
2013-01-19 00:32:00,34.0,25.0,30.26,SSW,200,0.0,0.0,69,0.00,,,0.00,,2013-01-19 08:32:00,
2013-01-19 00:42:00,34.0,25.0,30.26,SSW,200,0.0,0.0,69,0.00,,,0.00,,2013-01-19 08:42:00,
2013-01-19 00:52:00,34.0,25.0,30.27,SW,220,0.0,0.0,68,0.00,,,0.00,,2013-01-19 08:52:00,
2013-01-19 01:02:00,34.0,25.0,30.26,NNW,340,0.0,0.0,68,0.00,,,0.00,,2013-01-19 09:02:00,
2013-01-19 01:11:00,34.0,25.0,30.26,NNW,340,0.0,0.0,68,0.00,,,0.00,,2013-01-19 09:11:00,
2013-01-19 01:22:00,34.0,25.0,30.26,SSW,200,0.0,0.0,68,0.00,,,0.00,,2013-01-19 09:22:00,
2013-01-19 01:32:00,34.0,25.0,30.26,SW,230,0.0,0.0,68,0.00,,,0.00,,2013-01-19 09:32:00,
2013-01-19 01:42:00,34.0,25.0,30.26,SW,230,0.0,0.0,68,0.00,,,0.00,,2013-01-19 09:42:00,
2013-01-19 01:52:00,34.0,24.0,30.27,NNW,340,0.0,0.0,67,0.00,,,0.00,,2013-01-19 09:52:00,
2013-01-19 02:02:00,34.0,25.0,30.27,North,360,0.0,0.0,69,0.00,,,0.00,,2013-01-19 10:02:00,
2013-01-19 02:12:00,34.0,25.0,30.27,SW,220,0.0,0.0,68,0.00,,,0.00,,2013-01-19 10:12:00,
2013-01-19 02:22:00,34.0,25.0,30.27,SW,220,0.0,0.0,68,0.00,,,0.00,,2013-01-19 10:22:00,
2013-01-19 02:32:00,35.0,26.0,30.27,North,360,0.0,3.0,69,0.00,,,0.00,,2013-01-19 10:32:00,
2013-01-19 02:42:00,35.0,26.0,30.27,North,360,0.0,3.0,69,0.00,,,0.00,,2013-01-19 10:42:00,
2013-01-19 02:52:00,35.0,26.0,30.28,North,360,0.0,1.0,68,0.00,,,0.00,,2013-01-19 10:52:00,
2013-01-19 03:02:00,34.0,25.0,30.28,NNW,340,0.0,1.0,68,0.00,,,0.00,,2013-01-19 11:02:00,
2013-01-19 03:11:00,34.0,25.0,30.28,NNW,340,0.0,1.0,68,0.00,,,0.00,,2013-01-19 11:11:00,
2013-01-19 04:52:00,34.0,25.0,30.28,North,360,1.0,2.0,69,0.00,,,0.00,,2013-01-19 12:52:00,
2013-01-19 05:02:00,34.0,25.0,30.28,North,360,0.0,3.0,68,0.00,,,0.00,,2013-01-19 13:02:00,
2013-01-19 05:11:00,34.0,25.0,30.28,North,360,0.0,3.0,68,0.00,,,0.00,,2013-01-19 13:11:00,
2013-01-19 05:22:00,34.0,24.0,30.27,North,359,3.0,4.0,67,0.00,,,0.00,,2013-01-19 13:22:00,
2013-01-19 05:33:00,34.0,24.0,30.27,SW,219,0.0,4.0,66,0.00,,,0.00,,2013-01-19 13:33:00,
2013-01-19 05:42:00,34.0,24.0,30.27,SW,219,0.0,4.0,66,0.00,,,0.00,,2013-01-19 13:42:00,
2013-01-19 05:52:00,33.0,23.0,30.27,NNW,333,0.0,1.0,65,0.00,,,0.00,,2013-01-19 13:52:00,
2013-01-19 06:02:00,33.0,23.0,30.28,North,360,0.0,2.0,65,0.00,,,0.00,,2013-01-19 14:02:00,
2013-01-19 06:12:00,33.0,23.0,30.28,North,360,0.0,2.0,65,0.00,,,0.00,,2013-01-19 14:12:00,
2013-01-19 06:22:00,33.0,23.0,30.28,SSW,200,0.0,0.0,66,0.00,,,0.00,,2013-01-19 14:22:00,
2013-01-19 06:33:00,33.0,23.0,30.28,SSW,200,0.0,1.0,66,0.00,,,0.00,,2013-01-19 14:33:00,
2013-01-19 06:42:00,33.0,23.0,30.28,SSW,200,0.0,1.0,66,0.00,,,0.00,,2013-01-19 14:42:00,
2013-01-19 06:52:00,33.0,23.0,30.28,SSW,200,0.0,0.0,66,0.00,,,0.00,,2013-01-19 14:52:00,
2013-01-19 07:02:00,33.0,23.0,30.28,North,360,0.0,0.0,65,0.00,,,0.00,,2013-01-19 15:02:00,
2013-01-19 07:12:00,33.0,23.0,30.28,North,360,0.0,0.0,65,0.00,,,0.00,,2013-01-19 15:12:00,
2013-01-19 07:22:00,33.0,22.0,30.28,North,360,0.0,0.0,64,0.00,,,0.00,,2013-01-19 15:22:00,
2013-01-19 07:33:00,33.0,22.0,30.28,North,360,0.0,0.0,64,0.00,,,0.00,,2013-01-19 15:33:00,
2013-01-19 07:42:00,33.0,22.0,30.28,North,360,0.0,0.0,64,0.00,,,0.00,,2013-01-19 15:42:00,
2013-01-19 07:53:00,33.0,23.0,30.28,North,360,0.0,2.0,65,0.00,,,0.00,,2013-01-19 15:53:00,
2013-01-19 08:02:00,33.0,23.0,30.28,NNW,340,0.0,0.0,66,0.00,,,0.00,,2013-01-19 16:02:00,
2013-01-19 08:12:00,33.0,23.0,30.28,NNW,340,0.0,0.0,66,0.00,,,0.00,,2013-01-19 16:12:00,
2013-01-19 08:22:00,33.0,23.0,30.28,North,360,0.0,0.0,66,0.00,,,0.00,,2013-01-19 16:22:00,
2013-01-19 08:32:00,33.0,23.0,30.29,NNW,340,0.0,0.0,66,0.00,,,0.00,,2013-01-19 16:32:00,
2013-01-19 08:42:00,33.0,23.0,30.29,NNW,340,0.0,0.0,66,0.00,,,0.00,,2013-01-19 16:42:00,
2013-01-19 08:53:00,33.0,23.0,30.29,North,360,0.0,0.0,65,0.00,,,0.00,,2013-01-19 16:53:00,
2013-01-19 09:02:00,33.0,23.0,30.29,North,360,0.0,1.0,65,0.00,,,0.00,,2013-01-19 17:02:00,
2013-01-19 09:33:00,34.0,23.0,30.30,SSW,200,0.0,3.0,65,0.00,,,0.00,,2013-01-19 17:33:00,
2013-01-19 09:53:00,34.0,23.0,30.30,NNE,20,0.0,1.0,64,0.00,,,0.00,,2013-01-19 17:53:00,
2013-01-19 10:04:00,35.0,24.0,30.31,SW,230,0.0,0.0,63,0.00,,,0.00,,2013-01-19 18:04:00,
2013-01-19 10:12:00,35.0,24.0,30.31,SW,230,0.0,0.0,63,0.00,,,0.00,,2013-01-19 18:12:00,
2013-01-19 10:23:00,35.0,23.0,30.31,North,360,0.0,0.0,62,0.00,,,0.00,,2013-01-19 18:23:00,
2013-01-19 10:33:00,35.0,23.0,30.31,North,360,0.0,0.0,62,0.00,,,0.00,,2013-01-19 18:33:00,
2013-01-19 10:43:00,35.0,23.0,30.31,North,360,0.0,0.0,62,0.00,,,0.00,,2013-01-19 18:43:00,
2013-01-19 10:53:00,36.0,25.0,30.31,North,360,0.0,0.0,63,0.00,,,0.00,,2013-01-19 18:53:00,
2013-01-19 11:04:00,37.0,26.0,30.30,West,272,0.0,2.0,63,0.00,,,0.00,,2013-01-19 19:04:00,
2013-01-19 11:12:00,37.0,26.0,30.30,West,272,0.0,2.0,63,0.00,,,0.00,,2013-01-19 19:12:00,
2013-01-19 11:22:00,37.0,24.0,30.30,SSW,200,0.0,3.0,60,0.00,,,0.00,,2013-01-19 19:22:00,
2013-01-19 11:35:00,37.0,24.0,30.29,WNW,298,0.0,3.0,59,0.00,,,0.00,,2013-01-19 19:35:00,
2013-01-19 11:43:00,37.0,24.0,30.29,WNW,298,0.0,3.0,59,0.00,,,0.00,,2013-01-19 19:43:00,
2013-01-19 11:53:00,37.0,24.0,30.29,NNW,340,0.0,2.0,59,0.00,,,0.00,,2013-01-19 19:53:00,
2013-01-19 12:06:00,36.0,23.0,30.28,NW,317,0.0,3.0,60,0.00,,,0.00,,2013-01-19 20:06:00,
2013-01-19 12:12:00,36.0,23.0,30.28,NW,317,0.0,3.0,60,0.00,,,0.00,,2013-01-19 20:12:00,
2013-01-19 12:22:00,37.0,25.0,30.27,NNW,339,1.0,4.0,61,0.00,,,0.00,,2013-01-19 20:22:00,
2013-01-19 12:34:00,37.0,25.0,30.27,WSW,249,1.0,5.0,62,0.00,,,0.00,,2013-01-19 20:34:00,
2013-01-19 12:42:00,37.0,25.0,30.27,WSW,249,1.0,5.0,62,0.00,,,0.00,,2013-01-19 20:42:00,
2013-01-19 12:53:00,37.0,24.0,30.27,NNW,340,3.0,5.0,60,0.00,,,0.00,,2013-01-19 20:53:00,
2013-01-19 13:03:00,38.0,25.0,30.27,West,272,0.0,4.0,60,0.00,,,0.00,,2013-01-19 21:03:00,
2013-01-19 13:22:00,39.0,25.0,30.26,NW,308,1.0,4.0,58,0.00,,,0.00,,2013-01-19 21:22:00,
2013-01-19 13:35:00,40.0,26.0,30.25,SW,215,2.0,4.0,58,0.00,,,0.00,,2013-01-19 21:35:00,
2013-01-19 13:53:00,40.0,26.0,30.25,NW,305,2.0,5.0,57,0.00,,,0.00,,2013-01-19 21:53:00,
2013-01-19 14:05:00,40.0,26.0,30.25,NNW,336,4.0,7.0,56,0.00,,,0.00,,2013-01-19 22:05:00,
2013-01-19 14:12:00,40.0,26.0,30.25,NNW,336,4.0,7.0,56,0.00,,,0.00,,2013-01-19 22:12:00,
2013-01-19 14:23:00,40.0,26.0,30.25,NNW,342,3.0,5.0,56,0.00,,,0.00,,2013-01-19 22:23:00,
2013-01-19 14:42:00,40.0,26.0,30.25,NW,316,2.0,6.0,56,0.00,,,0.00,,2013-01-19 22:42:00,
2013-01-19 14:53:00,40.0,26.0,30.24,NNW,338,4.0,6.0,56,0.00,,,0.00,,2013-01-19 22:53:00,
2013-01-19 15:23:00,39.0,25.0,30.24,NNW,337,3.0,6.0,58,0.00,,,0.00,,2013-01-19 23:23:00,
2013-01-19 15:33:00,38.0,26.0,30.24,NNW,343,3.0,6.0,61,0.00,,,0.00,,2013-01-19 23:33:00,
2013-01-19 15:43:00,38.0,26.0,30.24,NNW,343,3.0,6.0,61,0.00,,,0.00,,2013-01-19 23:43:00,
2013-01-19 15:54:00,37.0,25.0,30.24,NNW,333,2.0,7.0,61,0.00,,,0.00,,2013-01-19 23:54:00,
2013-01-19 16:06:00,36.0,25.0,30.25,NNW,329,2.0,6.0,63,0.00,,,0.00,,2013-01-20 00:06:00,
2013-01-19 16:23:00,36.0,25.0,30.25,NNW,327,2.0,7.0,64,0.00,,,0.00,,2013-01-20 00:23:00,
2013-01-19 16:34:00,35.0,24.0,30.25,NW,325,1.0,8.0,65,0.00,,,0.00,,2013-01-20 00:34:00,
2013-01-19 16:43:00,35.0,24.0,30.25,NW,325,1.0,8.0,65,0.00,,,0.00,,2013-01-20 00:43:00,
2013-01-19 16:53:00,35.0,25.0,30.24,NNW,328,3.0,6.0,66,0.00,,,0.00,,2013-01-20 00:53:00,
2013-01-19 17:03:00,34.0,25.0,30.25,NNW,343,3.0,7.0,68,0.00,,,0.00,,2013-01-20 01:03:00,
2013-01-19 17:22:00,33.0,24.0,30.25,NW,317,2.0,9.0,69,0.00,,,0.00,,2013-01-20 01:22:00,
2013-01-19 17:43:00,33.0,24.0,30.25,NNW,343,1.0,4.0,70,0.00,,,0.00,,2013-01-20 01:43:00,
2013-01-19 17:53:00,33.0,24.0,30.25,NNW,344,4.0,7.0,70,0.00,,,0.00,,2013-01-20 01:53:00,
2013-01-19 18:03:00,32.0,24.0,30.25,North,350,2.0,5.0,71,0.00,,,0.00,,2013-01-20 02:03:00,
2013-01-19 18:12:00,32.0,24.0,30.25,North,350,2.0,5.0,71,0.00,,,0.00,,2013-01-20 02:12:00,
2013-01-19 18:23:00,32.0,24.0,30.25,NNW,340,0.0,4.0,71,0.00,,,0.00,,2013-01-20 02:23:00,
2013-01-19 18:34:00,32.0,23.0,30.26,North,355,1.0,3.0,70,0.00,,,0.00,,2013-01-20 02:34:00,
2013-01-19 18:42:00,32.0,23.0,30.26,North,355,1.0,3.0,70,0.00,,,0.00,,2013-01-20 02:42:00,
2013-01-19 19:05:00,33.0,24.0,30.25,NNW,340,0.0,0.0,70,0.00,,,0.00,,2013-01-20 03:05:00,
2013-01-19 19:12:00,33.0,24.0,30.25,NNW,340,0.0,0.0,70,0.00,,,0.00,,2013-01-20 03:12:00,
2013-01-19 19:23:00,33.0,24.0,30.27,North,356,0.0,4.0,70,0.00,,,0.00,,2013-01-20 03:23:00,
2013-01-19 19:34:00,33.0,25.0,30.27,NNW,343,1.0,5.0,71,0.00,,,0.00,,2013-01-20 03:34:00,
2013-01-19 19:43:00,33.0,25.0,30.27,NNW,343,1.0,5.0,71,0.00,,,0.00,,2013-01-20 03:43:00,
2013-01-19 19:53:00,34.0,26.0,30.28,NW,315,1.0,2.0,71,0.00,,,0.00,,2013-01-20 03:53:00,
2013-01-19 20:03:00,34.0,25.0,30.28,North,360,0.0,1.0,70,0.00,,,0.00,,2013-01-20 04:03:00,
2013-01-19 20:12:00,34.0,25.0,30.28,North,360,0.0,1.0,70,0.00,,,0.00,,2013-01-20 04:12:00,
2013-01-19 20:33:00,35.0,26.0,30.28,SSW,200,0.0,1.0,68,0.00,,,0.00,,2013-01-20 04:33:00,
2013-01-19 20:42:00,35.0,26.0,30.28,SSW,200,0.0,1.0,68,0.00,,,0.00,,2013-01-20 04:42:00,
2013-01-19 20:52:00,35.0,26.0,30.29,SSW,199,0.0,1.0,68,0.00,,,0.00,,2013-01-20 04:52:00,
2013-01-19 21:02:00,35.0,25.0,30.29,SSW,199,0.0,1.0,67,0.00,,,0.00,,2013-01-20 05:02:00,
2013-01-19 21:12:00,35.0,25.0,30.29,SSW,199,0.0,1.0,67,0.00,,,0.00,,2013-01-20 05:12:00,
2013-01-19 21:22:00,35.0,26.0,30.29,SSW,199,1.0,2.0,68,0.00,,,0.00,,2013-01-20 05:22:00,
2013-01-19 21:32:00,35.0,25.0,30.29,SSW,200,0.0,1.0,66,0.00,,,0.00,,2013-01-20 05:32:00,
2013-01-19 21:42:00,35.0,25.0,30.29,SSW,200,0.0,1.0,66,0.00,,,0.00,,2013-01-20 05:42:00,
2013-01-19 21:52:00,35.0,25.0,30.30,SSW,200,0.0,0.0,66,0.00,,,0.00,,2013-01-20 05:52:00,
2013-01-19 22:02:00,35.0,25.0,30.29,NNW,346,2.0,4.0,67,0.00,,,0.00,,2013-01-20 06:02:00,
2013-01-19 22:11:00,35.0,25.0,30.29,NNW,346,2.0,4.0,67,0.00,,,0.00,,2013-01-20 06:11:00,
2013-01-19 22:22:00,35.0,25.0,30.30,NNW,327,1.0,4.0,66,0.00,,,0.00,,2013-01-20 06:22:00,
2013-01-19 22:32:00,35.0,25.0,30.30,SSW,200,0.0,0.0,66,0.00,,,0.00,,2013-01-20 06:32:00,
2013-01-19 22:42:00,35.0,25.0,30.30,SSW,200,0.0,0.0,66,0.00,,,0.00,,2013-01-20 06:42:00,
2013-01-19 22:52:00,35.0,25.0,30.30,SSW,200,0.0,0.0,66,0.00,,,0.00,,2013-01-20 06:52:00,
2013-01-19 23:02:00,35.0,25.0,30.31,SSW,200,0.0,0.0,66,0.00,,,0.00,,2013-01-20 07:02:00,
2013-01-19 23:11:00,35.0,25.0,30.31,SSW,200,0.0,0.0,66,0.00,,,0.00,,2013-01-20 07:11:00,
2013-01-19 23:22:00,35.0,25.0,30.31,SSW,200,0.0,0.0,67,0.00,,,0.00,,2013-01-20 07:22:00,
2013-01-19 23:32:00,35.0,25.0,30.30,SE,140,0.0,0.0,66,0.00,,,0.00,,2013-01-20 07:32:00,
2013-01-19 23:42:00,35.0,25.0,30.30,SE,140,0.0,0.0,66,0.00,,,0.00,,2013-01-20 07:42:00,
2013-01-19 23:52:00,35.0,25.0,30.30,NNE,16,2.0,3.0,66,0.00,,,0.00,,2013-01-20 07:52:00,